India Forums Logo

Sasural Simar Ka

India Forums > Forum Index > Sasural Simar Ka
Sasural Simar Ka is the journey of an ordinary young small town girl, Puja, who has grown up in her middle class family, under her father's strict discipline.
...
<< | 42 | 43 | 44 | 45 | 46 | 47 | 48 | 49 | 50 | 51 | 52 | 53 | 54 | 55 | 56 | 57 | 58 | 59 | 60 | ... >>
TIDTopic SubjectStart DateLast Entry
3652503SSK TRP has increased: 2nd in Slot: Week 267/4/2013 2:08:47 AM7/4/2013 11:40:22 AM
3652678PURE ROSID FF: We will be together forever( Part 9)7/4/2013 4:25:08 AM11/7/2013 6:06:21 AM
3653216dosti ya pyar(friendship or love) UPDATED7/4/2013 11:02:47 AM3/31/2014 4:41:35 AM
3653461Roli & Siddhant || Tu Hi Rab Tu Hi Dua7/4/2013 1:59:10 PM7/6/2013 4:02:35 PM
3653644Funny pics : Avika Gor7/4/2013 10:37:17 PM7/6/2013 11:20:10 AM
3653780siddhant to marry jhumki (colors article ) RIVAL7/5/2013 1:28:03 AM7/9/2013 12:35:34 AM
3653787ssk new promo WU for 6/7/20137/5/2013 1:38:38 AM7/5/2013 3:40:08 PM
3654628Is roli cioming??7/5/2013 12:14:51 PM7/6/2013 4:29:33 AM
3655020Rate the Week7/6/2013 12:50:42 AM7/8/2013 12:40:13 AM
3655314roli7/6/2013 5:57:15 AM7/8/2013 6:47:05 AM
3655517roli is not coming sooner !!7/6/2013 9:35:06 AM7/8/2013 6:37:17 AM
3655658NEW PROMO SSK 10th July 2013 Wu and YT link7/6/2013 12:03:34 PM7/8/2013 6:38:13 AM
3655846ROSID VM****7/6/2013 7:41:19 PM7/8/2013 5:17:42 AM
3655967FUN POST ...7/7/2013 12:55:23 AM7/9/2013 5:24:48 AM
3657042Spoiler Alert: Jhumki attempts to kill Simar7/8/2013 5:00:21 AM7/9/2013 12:41:42 AM
3657111TB:Roli's mehendi ceremony in the Bhardwaj family!7/8/2013 5:54:44 AM7/9/2013 10:49:54 AM
3658171Khushi to pressurize Jhumki on killing Simar7/9/2013 1:11:55 AM7/9/2013 12:25:30 PM
3658517SBS/SBB/IBN7 seg: Wu and Link 9th July7/9/2013 5:04:56 AM7/10/2013 12:23:28 AM
3658821Sasural Simar Ka on location[I-F Video]7/9/2013 8:50:50 AM7/11/2013 9:16:07 AM
3658972Spoiler...!!7/9/2013 9:59:40 AM7/9/2013 1:18:43 PM
3659025ROSID VM- tum jo aaye7/9/2013 10:20:22 AM7/11/2013 9:36:35 AM
3659051marvellous manish raisinghani7/9/2013 10:34:13 AM7/10/2013 4:53:45 AM
3661004Extended Spoiler for 11/07/137/10/2013 10:27:10 PM7/11/2013 5:27:50 AM
3661465Simar to help Jhumki in finding Buntu7/11/2013 4:52:23 AM7/11/2013 10:26:59 AM
3662316Roli Siddhant Tum Hi Ho Female Version7/11/2013 4:26:30 PM7/15/2013 9:01:52 AM
3662325NEW PROMO:Sasural Simar Ka WU and Link7/11/2013 4:50:38 PM7/14/2013 11:14:53 AM
3663049Roli is alive7/12/2013 7:33:11 AM7/14/2013 9:46:28 AM
3663050Happy News : Roli comes back7/12/2013 7:33:12 AM7/16/2013 2:21:50 AM
3663089Spoiler...!7/12/2013 8:06:52 AM7/15/2013 9:10:36 AM
3663094Happy news... Roli to get back in Sasural Simar Ka7/12/2013 8:10:18 AM7/12/2013 8:10:18 AM
3663102FUN POST... MATAJI TROLLED7/12/2013 8:13:04 AM7/16/2013 6:09:22 PM
3664123Roli To Be Back In The Colors's Hit Show Sasural S7/13/2013 12:53:34 AM7/14/2013 11:00:23 AM
3664675roli7/13/2013 10:17:40 AM7/14/2013 11:07:42 AM
3664776roli is alive uncut version7/13/2013 11:20:58 AM7/16/2013 2:19:00 AM
3664904NEW** Rosid Vm- Roja Janeman (As requested)7/13/2013 2:14:18 PM7/15/2013 11:18:12 AM
3665245|The Sasural Times 1|Tere Bin Main Yun Kaise Jiya7/14/2013 2:41:04 AM7/21/2013 2:16:11 AM
3665412Major Twist in Sasural Simar Ka7/14/2013 7:07:00 AM7/16/2013 12:08:34 AM
3665534rosid photo vm oh mere jaan abh nahi rehna7/14/2013 9:36:12 AM7/16/2013 5:41:15 AM
366652615th May 2013 WU7/15/2013 8:59:18 AM8/13/2013 7:02:15 AM
3666692~Karva Chauth~ Rosid scene: Uncut 15th July 20137/15/2013 10:30:19 AM7/16/2013 5:39:27 PM
3667025Simar, Sid or both7/15/2013 2:24:39 PM7/16/2013 5:40:47 PM
3667081Roli & Siddhant - Jeene Laga Hoon7/15/2013 4:06:30 PM7/16/2013 5:55:34 PM
3667270MIA7/15/2013 11:14:06 PM7/17/2013 1:50:44 AM
3667877Roli back -- Jhumki dead7/16/2013 8:14:28 AM7/16/2013 5:40:08 PM
366793816th July 2013 WU7/16/2013 9:04:23 AM8/13/2013 6:29:53 AM
36679682morrow's epi7/16/2013 9:20:52 AM7/17/2013 11:24:55 AM
3668787E24 segment WU simar found roli7/17/2013 3:00:42 AM7/19/2013 5:55:46 AM
3668870Article - Double Fun7/17/2013 4:11:34 AM7/17/2013 4:11:34 AM
3668878SSK7/17/2013 4:17:03 AM7/17/2013 4:17:03 AM
366917517th July 2013 WU7/17/2013 8:37:50 AM7/18/2013 6:20:35 AM
3669667*WU added*NEW colors video:Avika missed being Roli7/17/2013 1:45:58 PM8/13/2013 7:02:16 PM
3670267Jhumki to save Simar & Roli risking her life7/18/2013 5:21:07 AM7/19/2013 1:20:36 PM
367053618th July 2013 WU7/18/2013 8:47:52 AM7/21/2013 9:40:27 AM
3670951Avika answers fans' questions #SSK ~WU added~7/18/2013 1:12:39 PM7/20/2013 1:17:14 AM
3671543METROMASTI ARTICLE7/19/2013 4:33:53 AM7/23/2013 5:53:25 PM
367182219th July 2013 WU in progress7/19/2013 8:42:37 AM7/22/2013 3:30:34 AM
3671859ROSID REUNION(19TH JULY 2013 PART 4)7/19/2013 9:11:15 AM7/19/2013 9:11:15 AM
3671867ROSID REUNION(19TH JULY 2013 PART 4)7/19/2013 9:15:34 AM7/22/2013 3:12:41 AM
3671896For a change7/19/2013 9:38:33 AM7/22/2013 3:09:39 AM
3671986Rosid Reunion..AWESOME EPI guys with Caps enjoy :)7/19/2013 10:30:08 AM7/22/2013 3:29:29 AM
3672056*|| ROSID: Mere Haath Mein <3 ||*BGM*||7/19/2013 11:10:09 AM7/20/2013 2:01:57 AM
3672241Rosid Unite!7/19/2013 2:19:43 PM7/22/2013 3:10:40 AM
3672264!!~~HOTTEST MAN MANISH RAISINGHANI'S BIRTHDAY~~!!7/19/2013 2:49:34 PM7/22/2013 10:52:20 AM
3672270~#ROCKSTAR MANISH RAISINGHANI ||HAPPY BIRTHDAY||#~7/19/2013 3:08:39 PM7/23/2013 2:18:16 AM
3672290ROSID - Hum Hai Deewane ( ENG SUBS )7/19/2013 4:23:14 PM7/21/2013 9:52:58 AM
3672796||Piya O Re Piya|| *NEW* Rosid VM- Reunion Special7/20/2013 7:05:20 AM7/22/2013 5:21:29 AM
367288920th written episode!7/20/2013 8:48:29 AM7/22/2013 3:13:53 AM
3672898ROSID IS BACK! :)7/20/2013 8:57:20 AM7/22/2013 3:01:05 AM
3672947now7/20/2013 9:39:47 AM7/20/2013 11:41:59 PM
367300620th July 2013 WU7/20/2013 10:31:03 AM7/21/2013 5:16:16 PM
3673169Is SSK ending :( :(7/20/2013 12:53:39 PM7/21/2013 8:57:19 PM
3673223Manish Raisinghani B-DAY VM7/20/2013 1:49:32 PM7/21/2013 4:59:21 PM
3673294BR: On Location Video - Siddhant-Roli Wedding7/20/2013 3:30:12 PM7/22/2013 4:11:03 AM
3673358UPD:Pge 6- ROSID WEDDING Caps: ~AB TUM HI HO~ <37/20/2013 5:25:55 PM7/24/2013 7:05:18 PM
3673957avika in colors 5th anniversary video7/21/2013 7:43:01 AM7/22/2013 2:59:08 AM
<< | 42 | 43 | 44 | 45 | 46 | 47 | 48 | 49 | 50 | 51 | 52 | 53 | 54 | 55 | 56 | 57 | 58 | 59 | 60 | ... >>